Regional Weather Roundup
Issued by NWS Upton, NY

Current Version | Previous Version | Text Only | Print | Product List | Glossary On
Versions: 1 2 3 4 5 6 7 8 9 10 11 12 13 14 15 16 17 18 19 20 21 22 23 24 25 26 27
000
ASUS41 KOKX 280908
RWROKX

REGIONAL WEATHER ROUNDUP
NATIONAL WEATHER SERVICE NEW YORK NY
500 AM EDT TUE MAR 28 2017

NOTE: "FAIR" INDICATES FEW OR NO CLOUDS BELOW 12,000 FEET WITH NO
SIGNIFICANT WEATHER AND/OR OBSTRUCTIONS TO VISIBILITY.

NYZ071-072-176-178-NJZ106-104-281000-
NEW YORK CITY METRO AREA

CITY           SKY/WX    TMP DP  RH WIND       PRES   REMARKS
Central Park   HVY RAIN  43  42  97 NE7       29.99R FOG
Wall St Helipt CLOUDY    45  43  93 NE6       29.97R
LaGuardia APRT RAIN      42  40  92 N7        29.97R VSB 1/4
Kennedy INTL   RAIN      45  44  97 E9        29.95F FOG
Breezy Point     N/A     41 N/A N/A E12         N/A
Newark/Liberty LGT RAIN  45  44  97 N10       29.95S FOG
Teterboro      LGT RAIN  44  42  93 NE5       29.95R
$$

NYZ177-179-078>081-281000-
LONG ISLAND NEW YORK

CITY           SKY/WX    TMP DP  RH WIND       PRES   REMARKS
Jones Beach      N/A     41 N/A N/A E10G16      N/A
Matinecock PT    N/A     41 N/A N/A E8          N/A
Farmingdale    CLOUDY    44  43  96 SE5       29.96R FOG
MacArthur/ISP  CLOUDY    42  42 100 NE6       29.96F
Shirley        CLOUDY    41  41 100 VRB3      29.97S
Westhampton    LGT RAIN  41  39  93 E5        29.98S FOG
East Hampton   FOG       40  39  99 E5        29.97S VSB 1/2
Montauk          N/A     41  41 100 E3        29.99
$$

NYZ052-065-067-281000-
HUDSON VALLEY

CITY           SKY/WX    TMP DP  RH WIND       PRES   REMARKS
White Plains   RAIN      41  40  96 SE9       29.94S VSB 1
Newburgh       LGT RAIN  43  43 100 NE7       29.94F FOG
Montgomery     CLOUDY    41  41 100 CALM      29.92R FOG
Poughkeepsie   CLOUDY    39  39 100 CALM      29.93F FOG
Albany         MOCLDY    40  37  89 CALM      29.94S
$$

NJZ001-105-106-008-010-013-015-019>022-104-281000-
NEW JERSEY

CITY           SKY/WX    TMP DP  RH WIND       PRES   REMARKS
Newark/Liberty LGT RAIN  45  44  97 N10       29.95S FOG
Teterboro      LGT RAIN  44  42  93 NE5       29.95R
Caldwell       CLOUDY    45  43  93 E5        29.95R FOG
Somerville     CLOUDY    47  47 100 CALM      29.91F FOG
Linden         LGT RAIN  46  44  93 CALM      29.94F
Sussex         CLOUDY    44  44 100 CALM      29.93R FOG
Andover          N/A     45  43  93 CALM      29.92F
Trenton        CLOUDY    48  47  96 NE8       29.91F
Millville      CLOUDY    53  53 100 CALM      29.88S
Atlantic City  CLOUDY    51  47  86 E3        29.89F
Wrightstown    NOT AVBL
Toms River     RAIN      46  46 100 NE12      29.91F
Belmar         FOG       43  43 100 NE10      29.93F VSB 1
$$

PAZ047>061-062-071-281000-
EASTERN PENNSYLVANIA

CITY           SKY/WX    TMP DP  RH WIND       PRES   REMARKS
Philadelphia   CLOUDY    51  50  96 NE9       29.90S FOG
Allentown      CLOUDY    49  46  90 NE6       29.91S FOG
Scranton       CLOUDY    48  47  96 CALM      29.89R FOG
$$

CTZ002-004>006-009-010-012-RIZ004-006-007-MAZ004-011-015-281000-
SOUTHERN NEW ENGLAND
 IN CT

CITY           SKY/WX    TMP DP  RH WIND       PRES   REMARKS
Bradley INTL   CLOUDY    38  37  97 CALM      29.98S
Hartford       CLOUDY    39  38  96 N3        29.98F FOG
Danbury        LGT RAIN  40  40 100 NE6       29.95F
Wtrbury/Oxford CLOUDY    37  36  93 E3        29.95F
Bridgeport     LGT RAIN  42  39  89 SE7       29.96S
Meriden        LGT RAIN  40  38  93 N3        29.98R FOG
New Haven      LGT RAIN  40  39  97 NE5       29.97S FOG
Chester        NOT AVBL
Groton         FOG       40  39  97 NE3       29.97S VSB 1/2
Wilimantic     CLOUDY    41  40  96 NE6       29.99S

 IN RI

CITY           SKY/WX    TMP DP  RH WIND       PRES   REMARKS
Providence     CLOUDY    40  37  89 NE9       29.98F FOG     WCI  34
Block Island   LGT RAIN  40  40 100 E6        29.98F VSB 1/4
Westerly       FOG       41  41 100 E6        29.98F VSB 3/4
 IN MA

CITY           SKY/WX    TMP DP  RH WIND       PRES   REMARKS
Boston         CLOUDY    36  35  96 NE6       30.01F WCI  31
Worcester      FOG       34  33  96 NE3       29.96R VSB 1/4
Westfield      FOG       37  37 100 N3        29.97S VSB 1/4
Provincetown   CLOUDY    37  36  96 N10       30.01S WCI  30
Nantucket      CLOUDY    37  37 100 N8        30.00S FOG     WCI  31
$$

ANZ330-335-338-340-345-350-353-355-281000-
COASTAL MARINE OBSERVATIONS


STATION/POSITION TIME  SKY/WX   TEMP    WIND        PRES    VSBY  WAVE
                                AIR SEA DIR/SP/G                  HT/PER
                 (UTC)          (F)     (DEG/KT/KT) (MB)    (MI)  (FT/S)
NY HARB ENTRANCE 0750            42 42   80/ 12/ 14 1014.2          3/ 7
20 S FIRE ISLAND 0750            42 41   90/ 12/ 14 1013.7          4/ 6
GREAT SOUTH BAY  NOT AVBL
23 SSW MONTAUK P 0750            42 42              1015.1          3/ 6
15 E BARNEGAT LI 0830               44                N/A           3/17
HUDSON CANYON    0750            47 44  120/  8/ 10 1014.4          3/ 7
KINGS POINT      0842            40 39              1014.3
EXECUTION ROCKS  NOT AVBL
CENTRAL LI SOUND 0830            39      40/  8/ 10   N/A           0
EASTERN LI SOUND NOT AVBL
ROBBINS REEF     0842            44      30/  8/  9 1014.3
$$


>>>>>>>>>>>>>>>>>>>>>>>>>>>> KEY <<<<<<<<<<<<<<<<<<<<<<<<<<<
>                                                          <
>     SKY/WX - Sky Condition/Present Weather               <
>     TMP    - Temperature in Fahrenheit                   <
>     DP     - Dew Point in Fahrenheit                     <
>     RH     - Relative Humidity in Percent                <
>     WIND   - Direction (from) and Speed in MPH           <
>     PRES   - Mean Sea Level Pressure (inches of Hg)      <
>     WCI    - Wind Chill Index                            <
>     VSB    - VISIBILITY IN MILES                         <
>     HX     - HEAT INDEX                                  <
>     TC     - TEMPERATURE IN CELSIUS                      <
>     VRB    - VARIABLE WIND DIRECTION                     <
>                                                          <
>>>>>>>>>>>>>>>>>>>>>>>>>>>> KEY <<<<<<<<<<<<<<<<<<<<<<<<<<<




USA.gov is the U.S. government's official web portal to all federal, state and local government web resources and services.